Wind_Gust
9 9 10 10 9 8 8 10 9 10 9 9 9 10 10 9 9 9 9 9 10 10 11 11 11 11 12 12 11 12 12 12 12 11 12 12 13 12 14 13 12 13
10 9 8 10 9 8 8 8 9 10 9 8 9 9 9 9 9 9 9 10 10 11 12 12 12 13 14 14 14 15 14 14 14 13 12 13 14 13 14 14 14 14
11 11 11 10 10 9 10 8 8 9 9 9 9 8 10 9 10 9 9 10 11 11 11 12 13 14 14 14 15 15 16 15 15 15 15 16 15 15 15 15 14 13
12 12 13 13 11 10 9 10 9 9 8 9 9 9 9 9 9 10 10 9 11 12 12 12 12 12 13 13 12 13 13 13 14 13 14 14 14 14 15 15 14 15
14 14 12 11 10 8 7 9 9 8 8 9 9 8 8 8 9 10 10 11 10 12 11 12 12 12 12 12 12 12 12 13 13 14 14 14 13 13 13 13 14 15
13 14 13 12 10 9 9 9 8 8 9 8 8 8 8 8 9 10 9 10 11 11 12 13 14 13 14 13 13 13 14 14 15 14 14 14 15 15 14 14 14 15
14 13 12 11 10 9 9 8 8 8 8 8 8 7 8 8 9 10 11 11 13 13 14 14 14 14 14 14 14 15 15 15 16 16 16 16 16 16 15 15 15 16
14 13 12 11 10 9 9 9 8 9 7 7 7 8 8 10 12 12 13 14 14 15 15 15 15 16 15 14 16 15 15 15 16 17 17 17 17 17 17 16 16 17
13 13 12 11 11 10 10 10 9 9 7 9 10 11 11 12 13 13 14 15 15 15 15 16 16 16 15 15 16 17 17 17 17 18 17 18 18 18 19 17 17 17
13 12 11 11 11 11 10 9 10 10 10 11 12 12 14 13 13 15 15 15 16 16 16 16 16 16 16 17 18 18 18 18 18 19 19 18 18 19 19 19 19 18
13 12 12 12 12 10 10 10 10 11 12 13 14 14 15 15 15 14 15 16 16 17 17 17 16 17 17 17 17 16 17 17 17 17 18 18 18 19 16 19 19 19
13 13 13 13 12 11 10 11 12 13 14 13 15 16 15 15 15 14 15 17 17 17 17 17 17 16 17 17 17 16 16 16 16 16 17 18 18 19 19 18 18 19
15 14 13 12 11 11 11 13 14 14 15 16 15 16 16 16 16 17 16 17 18 17 18 17 17 16 16 16 16 17 17 17 16 16 17 17 17 18 19 18 19 19
15 14 13 12 12 13 14 14 15 15 15 15 15 16 15 16 17 18 16 16 17 17 17 17 17 17 16 16 16 16 16 16 16 16 17 17 16 18 17 18 19 19
13 12 12 14 15 15 15 16 16 16 16 16 16 16 16 17 18 18 18 19 18 18 18 17 18 17 16 15 15 16 15 16 16 17 17 17 17 17 17 18 17 18
15 13 15 16 16 17 17 17 18 17 17 17 17 17 17 17 17 17 18 19 20 19 18 17 17 16 14 16 13 14 14 15 15 16 15 15 15 15 16 17 17 17
15 16 17 18 18 18 18 19 19 18 18 18 17 17 17 17 17 18 17 18 19 19 18 18 17 15 13 13 14 13 13 14 15 15 15 15 15 15 16 16 17 17
17 18 19 19 19 20 20 20 19 19 19 19 19 18 17 17 17 18 18 17 18 19 19 18 16 11 11 12 12 13 10 14 15 15 15 15 16 16 16 15 16 17
18 20 21 21 21 21 20 20 21 20 20 20 20 18 17 18 18 18 18 18 19 20 20 19 17 9 10 11 12 11 11 12 17 15 15 15 15 16 16 16 15 16
21 22 22 22 21 21 21 22 21 21 20 20 20 19 19 18 18 18 18 18 18 19 19 19 16 10 9 10 10 10 10 10 17 15 14 15 14 14 14 15 15 15
22 22 23 22 22 22 22 22 21 21 21 21 21 20 20 20 20 19 18 18 18 18 19 18 13 9 9 10 10 9 9 9 15 13 14 13 12 13 13 14 14 15
23 23 22 23 23 23 23 23 21 22 22 20 20 19 19 19 18 18 18 18 18 19 19 18 13 9 9 8 8 8 12 11 13 13 13 13 12 12 13 14 14 14
24 24 24 24 25 25 24 23 23 22 21 21 20 19 18 18 18 18 18 19 18 18 18 18 15 10 9 7 9 11 11 12 10 13 13 12 12 11 14 16 16 16
24 25 25 25 25 26 24 22 22 21 20 20 20 20 19 18 18 18 17 17 17 17 17 16 15 10 7 7 8 10 13 13 10 12 11 10 12 11 13 17 18 19
24 25 25 26 26 24 23 23 22 21 21 19 20 19 18 18 18 19 18 17 16 16 12 15 15 10 5 7 8 10 14 12 11 12 12 11 10 12 11 13 17 17
23 24 24 25 24 22 22 22 20 21 20 19 17 19 18 17 17 19 19 18 17 16 15 14 14 13 11 7 8 10 11 16 12 12 12 10 10 10 11 12 12 16
Wind_Speed
3 3 3 3 3 2 2 2 1 1 1 1 1 1 2 1 2 2 2 3 3 3 4 4 5 5 4 4 4 4 5 5 4 4 4 4 5 5 5 5 5 5
4 3 3 3 3 2 2 1 1 0 2 1 0 0 0 1 1 2 2 3 3 3 3 4 4 5 5 6 6 6 6 6 7 5 5 6 6 6 5 6 6 6
5 5 5 4 4 3 2 1 1 1 0 1 1 1 1 1 2 2 3 3 3 3 3 3 4 4 5 5 5 5 6 6 7 7 7 7 6 6 6 6 6 6
6 6 6 5 4 3 3 2 2 2 1 1 1 1 2 2 2 2 2 2 3 3 3 4 4 4 5 5 5 4 5 5 5 6 6 5 5 6 6 5 5 5
7 6 5 4 3 2 2 2 2 1 1 1 2 2 2 2 2 3 2 3 3 4 4 5 5 5 5 5 5 5 5 5 6 6 5 6 5 5 5 5 6 6
6 6 6 5 3 3 3 3 2 1 1 1 1 2 2 2 2 2 2 3 3 4 5 5 6 6 6 6 5 5 6 6 6 6 6 6 6 6 5 6 6 6
7 6 5 4 4 3 3 3 2 2 2 1 1 1 1 0 1 3 3 3 4 5 5 5 6 6 6 6 6 6 6 6 7 7 8 7 7 8 7 7 7 7
7 6 5 4 4 3 4 3 2 2 1 1 0 1 1 2 3 3 4 4 5 6 6 6 6 7 6 6 7 7 7 6 7 8 8 8 8 8 8 7 7 8
6 6 5 5 5 4 4 3 2 1 1 1 2 3 3 3 4 4 4 5 5 6 6 6 7 7 6 7 7 7 8 7 8 8 8 8 8 8 9 8 9 8
6 6 5 5 5 4 4 4 2 2 2 3 4 4 5 4 4 5 5 5 6 6 6 6 7 7 7 7 8 8 8 8 8 8 8 8 8 8 8 8 9 9
6 6 6 6 5 4 4 3 3 3 3 5 5 5 5 5 5 5 5 5 5 6 6 7 7 7 7 7 7 7 7 7 8 8 8 8 8 8 7 8 9 9
7 6 6 6 6 5 4 4 4 5 6 5 6 6 6 5 5 4 5 6 6 6 6 7 7 7 7 7 7 7 7 7 7 7 7 8 8 8 8 8 8 9
8 7 6 6 5 5 4 5 6 6 6 7 6 7 7 6 6 6 6 6 7 6 7 7 7 7 7 7 7 7 7 7 7 7 7 7 7 8 8 9 9 9
7 7 6 5 4 5 6 6 6 7 7 7 7 7 7 7 7 7 7 7 7 7 7 7 7 7 7 6 6 6 7 7 7 6 7 6 7 8 7 7 8 9
6 5 5 5 6 6 7 7 8 8 8 8 7 7 6 7 8 8 8 8 8 8 8 8 8 7 6 6 5 7 6 7 7 7 6 6 7 7 7 7 8 9
7 6 6 6 7 8 8 9 8 9 8 8 8 8 8 8 8 8 8 8 8 9 8 8 7 6 6 10 9 6 6 5 5 6 6 6 6 6 7 7 8 8
7 7 7 8 9 9 9 10 10 9 9 9 9 9 9 8 8 8 8 8 9 9 9 8 7 5 7 8 9 10 6 6 5 6 6 6 6 6 6 7 7 8
8 8 9 9 10 10 10 10 10 10 10 9 9 10 8 8 8 8 8 8 8 9 9 9 7 6 6 8 8 9 8 5 6 5 6 6 6 6 6 6 7 7
9 9 9 10 10 10 10 10 11 10 10 10 10 9 9 9 9 9 8 8 9 10 10 9 7 5 6 7 7 8 9 6 7 6 6 6 6 6 7 6 6 6
10 10 10 10 11 11 11 11 11 10 10 10 10 9 9 9 9 9 9 9 9 9 9 9 7 6 6 6 7 8 8 7 7 6 6 6 6 6 5 6 6 6
11 11 11 11 11 11 11 11 11 11 11 10 9 9 10 9 9 9 8 8 9 9 9 8 5 5 5 7 6 7 8 8 6 5 5 5 4 5 5 5 5 5
11 11 11 12 12 12 12 12 11 11 11 10 10 9 8 8 8 8 8 8 8 9 9 9 5 4 5 6 7 8 9 3 4 4 5 4 4 4 5 5 5 6
12 12 12 12 13 13 13 12 12 12 11 9 10 9 8 8 8 7 5 7 8 8 8 8 7 4 5 6 8 9 9 2 2 3 3 4 4 4 6 7 7 7
12 12 13 13 13 13 12 11 11 10 10 9 9 9 9 9 8 7 7 7 7 7 7 7 6 5 4 6 8 9 9 5 1 3 3 2 4 3 5 6 9 13
11 12 12 13 13 12 11 12 11 10 10 9 9 9 9 8 7 7 7 7 6 6 8 7 6 5 3 5 7 8 8 4 3 3 2 2 2 4 2 4 6 8
7 9 9 10 10 10 9 10 9 10 10 9 8 8 8 7 7 8 8 6 6 7 6 5 6 5 4 5 7 9 9 7 3 4 3 1 1 1 3 2 3 7
Wind_Direction
185 179 169 160 145 132 126 131 106 88 79 97 91 54 49 40 348 332 322 319 323 313 313 313 312 309 309 303 294 286 300 300 299 304 297 284 295 292 292 295 285 289
183 179 179 163 149 159 156 210 149 195 126 160 85 54 334 299 304 291 295 288 280 285 296 302 307 309 307 308 314 309 308 312 309 307 299 290 286 291 288 291 294 291
190 178 186 184 182 171 189 169 234 250 234 314 296 258 267 252 267 268 276 285 297 309 310 316 322 323 319 321 321 319 322 326 323 327 326 323 320 307 314 313 309 310
194 193 190 188 189 195 180 195 201 213 227 224 254 295 277 285 290 293 305 315 332 351 3 3 3 3 357 352 347 344 347 340 348 340 332 333 329 327 329 324 321 319
190 191 197 197 191 193 209 230 213 214 257 309 301 285 305 320 317 341 360 4 12 22 31 31 30 26 14 16 7 8 5 2 11 358 354 352 0 357 349 338 337 331
189 190 192 196 189 206 223 223 234 259 274 281 314 320 326 340 342 4 35 35 50 48 52 38 38 30 25 22 24 22 18 15 13 8 6 7 9 13 7 4 354 347
188 195 196 199 211 212 236 235 245 259 270 310 319 334 347 16 60 67 66 70 70 55 48 54 44 41 30 27 33 32 32 23 18 20 18 24 13 21 20 14 6 1
196 195 198 206 210 217 233 238 242 252 281 267 279 96 97 90 95 90 84 72 65 67 68 59 55 49 40 39 36 38 43 30 26 27 26 31 26 22 24 22 21 18
201 200 201 207 216 222 229 238 233 227 203 199 145 123 114 101 96 95 86 81 79 75 69 66 59 55 50 46 43 40 41 44 36 35 35 33 34 30 28 27 28 27
201 204 206 210 216 219 226 228 218 190 174 158 136 131 121 112 111 105 98 87 83 80 75 70 66 65 59 49 45 41 41 41 42 43 39 38 37 34 30 31 30 31
204 205 209 211 218 222 209 203 192 168 158 149 141 135 125 121 106 97 97 93 87 82 77 71 68 63 62 62 60 51 48 48 47 45 42 42 41 40 35 32 37 37
206 209 213 215 216 211 199 191 169 165 154 150 144 132 125 118 114 104 98 102 94 83 77 75 71 65 60 58 58 58 57 55 53 49 43 42 42 39 36 33 38 39
207 210 213 215 208 197 183 178 170 157 157 144 139 135 131 126 118 112 98 91 88 82 77 71 67 64 63 57 57 56 56 55 51 50 53 47 40 42 40 37 37 37
210 210 207 204 189 180 178 170 161 158 146 139 139 136 133 127 120 109 103 91 84 80 74 69 65 60 56 59 59 61 59 55 54 48 49 50 47 44 41 43 46 43
205 200 189 179 179 174 168 166 163 151 148 142 138 131 125 123 122 119 114 106 98 91 84 73 65 55 40 14 48 62 58 59 50 49 46 47 47 46 44 44 51 55
197 184 187 180 179 174 171 165 158 154 149 145 140 133 131 128 124 120 116 114 108 97 88 80 74 69 22 18 14 18 56 55 59 51 49 49 46 47 51 51 53 61
197 189 184 183 180 176 167 166 160 154 151 145 137 134 131 131 131 125 118 113 108 101 94 89 84 64 20 29 27 4 16 60 52 55 51 50 53 53 50 54 52 50
200 191 189 186 179 176 171 167 158 156 151 142 138 137 138 136 131 124 121 116 110 105 100 97 92 43 17 36 25 12 354 24 60 59 52 53 53 49 53 50 51 52
200 194 194 182 182 175 170 165 163 159 149 146 145 141 139 140 131 129 128 123 118 111 108 104 99 44 23 29 24 3 350 347 71 59 58 58 52 53 51 46 40 48
199 198 193 183 178 172 167 169 165 158 150 146 142 144 142 136 136 133 132 128 120 118 114 110 103 51 12 22 15 354 337 327 81 69 65 64 58 54 57 53 46 39
199 197 191 182 176 170 171 169 164 150 149 146 148 147 143 143 141 139 130 127 125 121 119 115 93 32 9 5 360 330 324 302 75 65 71 75 70 68 66 61 54 49
199 194 188 178 174 171 171 169 158 154 150 148 146 144 142 139 132 128 129 124 128 127 126 123 104 56 7 354 341 322 310 278 85 82 66 71 73 66 62 56 48 38
197 191 184 178 174 172 172 164 156 152 147 146 143 140 136 131 124 110 109 151 143 139 133 126 118 70 15 357 343 332 305 67 86 70 71 73 73 90 81 60 45 31
194 189 181 178 173 175 168 157 151 144 141 141 138 133 127 121 113 129 179 155 150 146 139 128 117 76 16 3 348 341 318 309 32 82 69 100 104 95 96 86 63 42
191 187 181 175 173 168 157 148 144 138 133 133 128 123 120 120 134 176 169 158 150 131 123 128 116 104 64 5 353 349 330 317 3 23 49 31 133 119 129 104 108 78
180 179 173 167 161 142 139 131 116 112 118 117 120 123 133 141 181 182 166 152 140 140 148 135 128 116 72 8 6 352 349 330 4 359 356 76 25 72 130 108 108 121